Regional Weather Roundup
Issued by NWS Cleveland, OH

Home | Current Version | Previous Version | Graphics & Text | Print | Product List | Glossary On
Versions: 1 2 3 4 5 6 7 8 9 10 11 12 13 14 15 16 17 18 19 20 21 22 23 24 25 26 27 28 29 30 31 32 33 34 35 36 37 38 39 40 41 42 43 44 45 46 47 48 49 50
000
ASUS41 KCLE 290010
RWRCLE
OHIO REGIONAL WEATHER ROUNDUP
NATIONAL WEATHER SERVICE CLEVELAND, OH
800 PM EDT MON JUL 28 2014

NOTE: "FAIR" INDICATES FEW OR NO CLOUDS BELOW 12,000 FEET WITH NO
SIGNIFICANT WEATHER AND/OR OBSTRUCTIONS TO VISIBILITY.

OHZ001>008-015>018-024>027-034-035-043-044-290100-
   NORTHWEST OHIO

CITY           SKY/WX    TMP DP  RH WIND       PRES   REMARKS
DEFIANCE       CLEAR     66  53  63 NW9G16    29.97R
FINDLAY        CLOUDY    70  53  54 N9        29.94R
TOLEDO EXPRESS CLOUDY    67  52  58 N9        29.96R
TOLEDO EXEC    CLOUDY    68  50  52 N12G17    29.96R
LIMA           MOCLDY    68  55  63 NW14G24   29.96R
$$

OHZ009>014-019>023-028>033-038-089-290100-
   NORTHEAST OHIO

CITY           SKY/WX    TMP DP  RH WIND       PRES   REMARKS
CLE-HOPKINS    CLOUDY    63  52  67 N10       29.96S
CLE-LAKEFRONT  PTCLDY    63  52  67 N15       29.94R
CUY CO. ARPT   MOCLDY    63  54  72 N14       29.95R
LORAIN-ELYRIA  CLOUDY    66  52  60 N9        29.95S
ASHTABULA      PTCLDY    59  48  67 NW10G18   29.94R
AKRON-CANTON   MOCLDY    63  50  62 N9        29.94R
WOOSTER        CLOUDY    63  52  67 N9        29.96R
MANSFIELD      MOCLDY    63  54  72 NE7       29.96R
YOUNGSTOWN     CLOUDY    60  51  72 NW10      29.93R
$$

OHZ042-051>053-060>062-070>072-077>081-290100-
  SOUTHWEST OHIO

CITY           SKY/WX    TMP DP  RH WIND       PRES   REMARKS
CINC-COVINGTON MOCLDY    71  54  54 NW14      29.98S
CINC-LUNKEN    PTCLDY    71  55  56 NW12G20   29.98R
HAMILTON       CLEAR     70  56  61 NW9       29.98S
DAYTON         MOCLDY    69  56  62 NW16      29.98R
WRIGHT-PAT AFB PTCLDY    70  56  61 NW12G18   29.96R
DAYTON GENERAL MOCLDY    70  56  61 NW13      29.97R
WILMINGTON     CLEAR     69  56  62 N8        29.96R
$$

OHZ036-037-039>041-045>050-054>059-063>069-073>076-082>088-290100-
  CENTRAL AND SOUTHEAST OHIO

CITY           SKY/WX    TMP DP  RH WIND       PRES   REMARKS
COLUMBUS       MOCLDY    71  52  50 N9        29.93R
OSU AIRPORT    CLOUDY    69  53  56 NW10      29.94R
BOLTON FIELD   PTCLDY    68  55  63 NW7       29.95R
RICKENBACK AFB MOCLDY    71  47  42 NW7       29.93S
NEWARK         CLOUDY    68  55  63 N5        29.93R
MARION         CLOUDY    67  55  65 N7        29.95R
LANCASTER      PTCLDY    69  56  62 N5        29.94R
ZANESVILLE     PTCLDY    67  55  65 N5        29.93R
NEW PHILLY     CLOUDY    65  54  67 N7        29.94R
$$


USA.gov is the U.S. government's official web portal to all federal, state and local government web resources and services.